"Period start","avg(HW err(1)/warn(2) (#))","avg(Visibility (m))","avg(Weather code (#))","avg(Precip intensity (mm/h))","min(HW err(1)/warn(2) (#))","max(HW err(1)/warn(2) (#))","std(HW err(1)/warn(2) (#))","med(HW err(1)/warn(2) (#))","min(Visibility (m))","max(Visibility (m))","std(Visibility (m))","med(Visibility (m))","min(Weather code (#))","max(Weather code (#))","std(Weather code (#))","med(Weather code (#))","min(Precip intensity (mm/h))","max(Precip intensity (mm/h))","std(Precip intensity (mm/h))","med(Precip intensity (mm/h))"
2013-07-29 00:00:00,1,49731,0,0.00,0,2,1,2,48551,50000,467,50000,0,0,0,0,0.00,0.00,0.00,0.00
2013-07-29 00:10:00,1,47279,0,0.00,0,2,1,2,39522,50000,3817,49560,0,0,0,0,0.00,0.00,0.00,0.00
2013-07-29 00:20:00,2,45173,0,0.00,0,2,1,2,36235,50000,4443,45699,0,0,0,0,0.00,0.00,0.00,0.00
2013-07-29 00:30:00,2,44818,0,0.00,0,2,1,2,34501,50000,5538,46202,0,0,0,0,0.00,0.00,0.00,0.00
2013-07-29 00:40:00,0,44589,0,0.00,0,0,0,0,37948,50000,4549,44472,0,0,0,0,0.00,0.00,0.00,0.00
2013-07-29 00:50:00,0,47289,0,0.00,0,0,0,0,42368,50000,2993,48598,0,0,0,0,0.00,0.00,0.00,0.00
2013-07-29 01:00:00,0,45130,0,0.00,0,2,1,0,33743,50000,5127,46660,0,0,0,0,0.00,0.00,0.00,0.00
2013-07-29 01:10:00,2,47245,0,0.00,2,2,0,2,35840,50000,4201,48740,0,0,0,0,0.00,0.00,0.00,0.00
2013-07-29 01:20:00,2,49037,0,0.00,0,2,1,2,43527,50000,1922,50000,0,0,0,0,0.00,0.00,0.00,0.00
2013-07-29 01:30:00,0,47454,0,0.00,0,0,0,0,39684,50000,3619,49354,0,0,0,0,0.00,0.00,0.00,0.00
2013-07-29 01:40:00,0,37666,0,0.00,0,0,0,0,10159,50000,15127,47336,0,0,0,0,0.00,0.00,0.00,0.00
2013-07-29 01:50:00,1,45917,0,0.00,0,2,1,2,32351,50000,4965,47286,0,0,0,0,0.00,0.00,0.00,0.00
2013-07-29 02:00:00,0,44795,0,0.00,0,0,0,0,34130,50000,5034,46584,0,0,0,0,0.00,0.00,0.00,0.00
2013-07-29 02:10:00,2,46333,0,0.00,0,2,1,2,36998,50000,4416,48840,0,0,0,0,0.00,0.00,0.00,0.00
2013-07-29 02:20:00,2,48505,0,0.00,0,2,1,2,43146,50000,2196,49515,0,0,0,0,0.00,0.00,0.00,0.00
2013-07-29 02:30:00,0,48207,0,0.00,0,2,1,0,43684,50000,2390,50000,0,0,0,0,0.00,0.00,0.00,0.00
2013-07-29 02:40:00,1,48924,0,0.00,0,2,1,2,45121,50000,1542,50000,0,0,0,0,0.00,0.00,0.00,0.00
2013-07-29 02:50:00,2,49049,0,0.00,0,2,1,2,45768,50000,1510,50000,0,0,0,0,0.00,0.00,0.00,0.00
2013-07-29 03:00:00,2,48605,0,0.00,0,2,1,2,40680,50000,2721,49847,0,0,0,0,0.00,0.00,0.00,0.00
2013-07-29 03:10:00,2,45705,0,0.00,0,2,1,2,40855,50000,3675,46520,0,0,0,0,0.00,0.00,0.00,0.00
2013-07-29 03:20:00,1,47808,0,0.00,0,2,1,2,41328,50000,2494,48462,0,0,0,0,0.00,0.00,0.00,0.00
2013-07-29 03:30:00,2,45101,0,0.00,2,2,0,2,39794,50000,2987,45145,0,0,0,0,0.00,0.00,0.00,0.00
2013-07-29 03:40:00,2,46478,0,0.00,2,2,0,2,36930,50000,5159,50000,0,0,0,0,0.00,0.00,0.00,0.00
2013-07-29 03:50:00,1,48738,0,0.00,0,2,1,0,42323,50000,2486,50000,0,0,0,0,0.00,0.00,0.00,0.00
2013-07-29 04:00:00,0,43045,0,0.00,0,2,1,0,30502,50000,7156,46709,0,0,0,0,0.00,0.00,0.00,0.00
2013-07-29 04:10:00,2,42946,0,0.00,0,2,1,2,33282,50000,5184,44090,0,0,0,0,0.00,0.00,0.00,0.00
2013-07-29 04:20:00,1,36225,0,0.00,0,2,1,2,22306,49659,8084,36658,0,0,0,0,0.00,0.00,0.00,0.00
2013-07-29 04:30:00,2,45579,0,0.00,2,2,0,2,37634,50000,4124,47074,0,0,0,0,0.00,0.00,0.00,0.00
2013-07-29 04:40:00,2,44263,0,0.00,2,2,0,2,36302,50000,4642,44306,0,0,0,0,0.00,0.00,0.00,0.00
2013-07-29 04:50:00,2,43552,0,0.00,0,2,1,2,35735,50000,5092,42338,0,0,0,0,0.00,0.00,0.00,0.00
2013-07-29 05:00:00,1,46165,0,0.00,0,2,1,0,39730,50000,3766,47462,0,0,0,0,0.00,0.00,0.00,0.00
2013-07-29 05:10:00,0,44392,0,0.00,0,0,0,0,35360,50000,4827,43014,0,0,0,0,0.00,0.00,0.00,0.00
2013-07-29 05:20:00,0,46747,0,0.00,0,0,0,0,29335,50000,6520,50000,0,0,0,0,0.00,0.00,0.00,0.00
2013-07-29 05:30:00,0,47117,0,0.00,0,0,0,0,35283,50000,4723,50000,0,0,0,0,0.00,0.00,0.00,0.00
2013-07-29 05:40:00,0,48398,0,0.00,0,0,0,0,43614,50000,2450,49864,0,0,0,0,0.00,0.00,0.00,0.00
2013-07-29 05:50:00,0,47751,0,0.00,0,0,0,0,44145,50000,2301,48465,0,0,0,0,0.00,0.00,0.00,0.00
2013-07-29 06:00:00,0,43636,0,0.00,0,0,0,0,35033,50000,6005,44658,0,0,0,0,0.00,0.00,0.00,0.00
2013-07-29 06:10:00,0,45671,0,0.00,0,0,0,0,37315,50000,4187,45444,0,0,0,0,0.00,0.00,0.00,0.00
2013-07-29 06:20:00,0,47361,0,0.00,0,0,0,0,42092,50000,3041,48666,0,0,0,0,0.00,0.00,0.00,0.00
2013-07-29 06:30:00,0,48379,0,0.00,0,0,0,0,45372,50000,1785,48957,0,0,0,0,0.00,0.00,0.00,0.00
2013-07-29 06:40:00,0,46081,0,0.00,0,0,0,0,39478,50000,4217,47653,0,0,0,0,0.00,0.00,0.00,0.00
2013-07-29 06:50:00,0,47075,0,0.00,0,0,0,0,36555,50000,4444,49702,0,0,0,0,0.00,0.00,0.00,0.00
2013-07-29 07:00:00,0,46101,0,0.00,0,0,0,0,35261,50000,4951,48426,0,0,0,0,0.00,0.00,0.00,0.00
2013-07-29 07:10:00,0,40979,0,0.00,0,0,0,0,10061,50000,13317,47921,0,0,0,0,0.00,0.00,0.00,0.00
2013-07-29 07:20:00,0,48771,0,0.00,0,0,0,0,44659,50000,1989,50000,0,0,0,0,0.00,0.00,0.00,0.00
2013-07-29 07:30:00,0,46037,0,0.00,0,0,0,0,38818,50000,4313,47959,0,0,0,0,0.00,0.00,0.00,0.00
2013-07-29 07:40:00,0,44724,0,0.00,0,0,0,0,37680,50000,4447,45593,0,0,0,0,0.00,0.00,0.00,0.00
2013-07-29 07:50:00,0,47580,0,0.00,0,0,0,0,39877,50000,3866,50000,0,0,0,0,0.00,0.00,0.00,0.00
2013-07-29 08:00:00,0,49644,0,0.00,0,0,0,0,47562,50000,771,50000,0,0,0,0,0.00,0.00,0.00,0.00
2013-07-29 08:10:00,0,49369,0,0.00,0,0,0,0,44836,50000,1535,50000,0,0,0,0,0.00,0.00,0.00,0.00
2013-07-29 08:20:00,0,49815,0,0.00,0,0,0,0,48688,50000,408,50000,0,0,0,0,0.00,0.00,0.00,0.00
2013-07-29 08:30:00,0,49815,0,0.00,0,0,0,0,48303,50000,506,50000,0,0,0,0,0.00,0.00,0.00,0.00
2013-07-29 08:40:00,0,49751,0,0.00,0,0,0,0,48228,50000,551,50000,0,0,0,0,0.00,0.00,0.00,0.00
2013-07-29 08:50:00,0,49814,0,0.00,0,0,0,0,48138,50000,559,50000,0,0,0,0,0.00,0.00,0.00,0.00
2013-07-29 09:00:00,0,50000,0,0.00,0,0,0,0,50000,50000,0,50000,0,0,0,0,0.00,0.00,0.00,0.00
2013-07-29 09:10:00,0,49997,0,0.00,0,0,0,0,49968,50000,10,50000,0,0,0,0,0.00,0.00,0.00,0.00
2013-07-29 09:20:00,0,50000,0,0.00,0,0,0,0,50000,50000,0,50000,0,0,0,0,0.00,0.00,0.00,0.00
2013-07-29 09:30:00,1,50000,0,0.00,0,2,1,1,50000,50000,0,50000,0,0,0,0,0.00,0.00,0.00,0.00
2013-07-29 09:40:00,2,50000,0,0.00,2,2,0,2,50000,50000,0,50000,0,0,0,0,0.00,0.00,0.00,0.00
2013-07-29 09:50:00,2,50000,0,0.00,2,2,0,2,50000,50000,0,50000,0,0,0,0,0.00,0.00,0.00,0.00
2013-07-29 10:00:00,2,50000,0,0.00,2,2,0,2,50000,50000,0,50000,0,0,0,0,0.00,0.00,0.00,0.00
2013-07-29 10:10:00,2,49992,0,0.00,2,2,0,2,49917,50000,25,50000,0,0,0,0,0.00,0.00,0.00,0.00
2013-07-29 10:20:00,2,50000,0,0.00,2,2,0,2,50000,50000,0,50000,0,0,0,0,0.00,0.00,0.00,0.00
2013-07-29 10:30:00,2,49864,0,0.00,2,2,0,2,48637,50000,409,50000,0,0,0,0,0.00,0.00,0.00,0.00
2013-07-29 10:40:00,2,50000,0,0.00,2,2,0,2,50000,50000,0,50000,0,0,0,0,0.00,0.00,0.00,0.00
2013-07-29 10:50:00,2,49814,0,0.00,2,2,0,2,48138,50000,559,50000,0,0,0,0,0.00,0.00,0.00,0.00
2013-07-29 11:00:00,2,50000,0,0.00,2,2,0,2,50000,50000,0,50000,0,0,0,0,0.00,0.00,0.00,0.00
2013-07-29 11:10:00,2,50000,0,0.00,2,2,0,2,50000,50000,0,50000,0,0,0,0,0.00,0.00,0.00,0.00
2013-07-29 11:20:00,2,39464,0,0.00,2,2,0,2,9992,50000,15246,49942,0,0,0,0,0.00,0.00,0.00,0.00
2013-07-29 11:30:00,2,49599,0,0.00,2,2,0,2,47818,50000,806,50000,0,0,0,0,0.00,0.00,0.00,0.00
2013-07-29 11:40:00,2,50000,0,0.00,2,2,0,2,50000,50000,0,50000,0,0,0,0,0.00,0.00,0.00,0.00
2013-07-29 11:50:00,2,49812,0,0.00,2,2,0,2,48308,50000,504,50000,0,0,0,0,0.00,0.00,0.00,0.00
2013-07-29 12:00:00,2,50000,0,0.00,2,2,0,2,50000,50000,0,50000,0,0,0,0,0.00,0.00,0.00,0.00
2013-07-29 12:10:00,2,50000,0,0.00,2,2,0,2,50000,50000,0,50000,0,0,0,0,0.00,0.00,0.00,0.00
2013-07-29 12:20:00,2,50000,0,0.00,2,2,0,2,50000,50000,0,50000,0,0,0,0,0.00,0.00,0.00,0.00
2013-07-29 12:30:00,2,50000,0,0.00,2,2,0,2,50000,50000,0,50000,0,0,0,0,0.00,0.00,0.00,0.00
2013-07-29 12:40:00,2,48812,0,0.00,2,2,0,2,38121,50000,3564,50000,0,0,0,0,0.00,0.00,0.00,0.00
2013-07-29 12:50:00,2,43831,0,0.00,2,2,0,2,13402,50000,11596,50000,0,0,0,0,0.00,0.00,0.00,0.00
2013-07-29 13:00:00,2,50000,0,0.00,2,2,0,2,50000,50000,0,50000,0,0,0,0,0.00,0.00,0.00,0.00
2013-07-29 13:10:00,2,50000,0,0.00,2,2,0,2,50000,50000,0,50000,0,0,0,0,0.00,0.00,0.00,0.00
2013-07-29 13:20:00,2,50000,0,0.00,2,2,0,2,50000,50000,0,50000,0,0,0,0,0.00,0.00,0.00,0.00
2013-07-29 13:30:00,2,50000,0,0.00,2,2,0,2,50000,50000,0,50000,0,0,0,0,0.00,0.00,0.00,0.00
2013-07-29 13:40:00,2,50000,0,0.00,2,2,0,2,50000,50000,0,50000,0,0,0,0,0.00,0.00,0.00,0.00
2013-07-29 13:50:00,2,50000,0,0.00,2,2,0,2,50000,50000,0,50000,0,0,0,0,0.00,0.00,0.00,0.00
2013-07-29 14:00:00,2,50000,0,0.00,2,2,0,2,50000,50000,0,50000,0,0,0,0,0.00,0.00,0.00,0.00
2013-07-29 14:10:00,2,50000,0,0.00,2,2,0,2,50000,50000,0,50000,0,0,0,0,0.00,0.00,0.00,0.00
2013-07-29 14:20:00,2,50000,0,0.00,2,2,0,2,50000,50000,0,50000,0,0,0,0,0.00,0.00,0.00,0.00
2013-07-29 14:30:00,2,50000,0,0.00,2,2,0,2,50000,50000,0,50000,0,0,0,0,0.00,0.00,0.00,0.00
2013-07-29 14:40:00,2,50000,0,0.00,2,2,0,2,50000,50000,0,50000,0,0,0,0,0.00,0.00,0.00,0.00
2013-07-29 14:50:00,2,50000,0,0.00,2,2,0,2,50000,50000,0,50000,0,0,0,0,0.00,0.00,0.00,0.00
2013-07-29 15:00:00,2,50000,0,0.00,2,2,0,2,50000,50000,0,50000,0,0,0,0,0.00,0.00,0.00,0.00
2013-07-29 15:10:00,2,50000,0,0.00,2,2,0,2,50000,50000,0,50000,0,0,0,0,0.00,0.00,0.00,0.00
2013-07-29 15:20:00,2,50000,0,0.00,2,2,0,2,50000,50000,0,50000,0,0,0,0,0.00,0.00,0.00,0.00
2013-07-29 15:30:00,2,50000,0,0.00,2,2,0,2,50000,50000,0,50000,0,0,0,0,0.00,0.00,0.00,0.00
2013-07-29 15:40:00,2,50000,0,0.00,2,2,0,2,50000,50000,0,50000,0,0,0,0,0.00,0.00,0.00,0.00
2013-07-29 15:50:00,2,50000,0,0.00,2,2,0,2,50000,50000,0,50000,0,0,0,0,0.00,0.00,0.00,0.00
2013-07-29 16:00:00,2,50000,0,0.00,2,2,0,2,50000,50000,0,50000,0,0,0,0,0.00,0.00,0.00,0.00
2013-07-29 16:10:00,2,50000,0,0.00,2,2,0,2,50000,50000,0,50000,0,0,0,0,0.00,0.00,0.00,0.00
2013-07-29 16:20:00,2,50000,0,0.00,2,2,0,2,50000,50000,0,50000,0,0,0,0,0.00,0.00,0.00,0.00
2013-07-29 16:30:00,2,50000,0,0.00,2,2,0,2,50000,50000,0,50000,0,0,0,0,0.00,0.00,0.00,0.00
2013-07-29 16:40:00,2,50000,0,0.00,2,2,0,2,50000,50000,0,50000,0,0,0,0,0.00,0.00,0.00,0.00
2013-07-29 16:50:00,2,50000,0,0.00,2,2,0,2,50000,50000,0,50000,0,0,0,0,0.00,0.00,0.00,0.00
2013-07-29 17:00:00,2,47348,0,0.00,2,2,0,2,36354,50000,4894,50000,0,0,0,0,0.00,0.00,0.00,0.00
2013-07-29 17:10:00,2,49976,0,0.00,2,2,0,2,49765,50000,70,50000,0,0,0,0,0.00,0.00,0.00,0.00
2013-07-29 17:20:00,2,50000,0,0.00,2,2,0,2,50000,50000,0,50000,0,0,0,0,0.00,0.00,0.00,0.00
2013-07-29 17:30:00,2,50000,0,0.00,2,2,0,2,50000,50000,0,50000,0,0,0,0,0.00,0.00,0.00,0.00
2013-07-29 17:40:00,2,50000,0,0.00,2,2,0,2,50000,50000,0,50000,0,0,0,0,0.00,0.00,0.00,0.00
2013-07-29 17:50:00,2,49997,0,0.00,2,2,0,2,49967,50000,10,50000,0,0,0,0,0.00,0.00,0.00,0.00
2013-07-29 18:00:00,2,49813,0,0.00,2,2,0,2,48489,50000,454,50000,0,0,0,0,0.00,0.00,0.00,0.00
2013-07-29 18:10:00,2,49852,0,0.00,2,2,0,2,48524,50000,443,50000,0,0,0,0,0.00,0.00,0.00,0.00
2013-07-29 18:20:00,2,50000,0,0.00,2,2,0,2,50000,50000,0,50000,0,0,0,0,0.00,0.00,0.00,0.00
2013-07-29 18:30:00,2,50000,0,0.00,2,2,0,2,50000,50000,0,50000,0,0,0,0,0.00,0.00,0.00,0.00
2013-07-29 18:40:00,2,50000,0,0.00,2,2,0,2,50000,50000,0,50000,0,0,0,0,0.00,0.00,0.00,0.00
2013-07-29 18:50:00,2,50000,0,0.00,2,2,0,2,50000,50000,0,50000,0,0,0,0,0.00,0.00,0.00,0.00
2013-07-29 19:00:00,2,48512,0,0.00,2,2,0,2,42254,50000,2980,50000,0,0,0,0,0.00,0.00,0.00,0.00
2013-07-29 19:10:00,2,25615,0,0.00,2,2,0,2,9914,50000,16413,20012,0,0,0,0,0.00,0.00,0.00,0.00
2013-07-29 19:20:00,2,17484,0,0.00,2,2,0,2,9482,37070,8889,14158,0,0,0,0,0.00,0.00,0.00,0.00
2013-07-29 19:30:00,2,8720,5,0.00,2,2,0,2,2003,27911,8236,5467,0,10,5,5,0.00,0.00,0.00,0.00
2013-07-29 19:40:00,2,6266,10,0.00,2,2,0,2,1644,16635,4497,5226,10,10,0,10,0.00,0.00,0.00,0.00
2013-07-29 19:50:00,2,7969,9,0.00,2,2,0,2,1897,27983,7364,5378,0,10,3,10,0.00,0.00,0.00,0.00
2013-07-29 20:00:00,2,9224,10,0.00,2,2,0,2,2668,20444,5190,8096,10,10,0,10,0.00,0.00,0.00,0.00
2013-07-29 20:10:00,2,35410,1,0.00,2,2,0,2,4924,50000,16981,43284,0,10,3,0,0.00,0.00,0.00,0.00
2013-07-29 20:20:00,2,1732,9,0.00,2,2,0,2,919,3190,656,1533,0,10,3,10,0.00,0.00,0.00,0.00
2013-07-29 20:30:00,2,7237,10,0.00,2,2,0,2,2100,14506,4489,6076,10,10,0,10,0.00,0.00,0.00,0.00
2013-07-29 20:40:00,2,25541,1,0.00,2,2,0,2,10312,39499,8649,27870,0,10,3,0,0.00,0.00,0.00,0.00
2013-07-29 20:50:00,2,29751,0,0.00,2,2,0,2,12798,39424,7826,30330,0,0,0,0,0.00,0.00,0.00,0.00
2013-07-29 21:00:00,2,6670,4,0.00,2,2,0,2,3613,19181,4502,4927,0,10,5,0,0.00,0.00,0.00,0.00
2013-07-29 21:10:00,2,10020,9,0.00,2,2,0,2,3734,24775,6188,8924,0,10,3,10,0.00,0.00,0.00,0.00
2013-07-29 21:20:00,2,12073,10,0.00,2,2,0,2,2834,29710,9086,8456,10,10,0,10,0.00,0.00,0.00,0.00
2013-07-29 21:30:00,2,20444,0,0.00,2,2,0,2,5553,49173,16836,10620,0,0,0,0,0.00,0.00,0.00,0.00
2013-07-29 21:40:00,2,5510,9,0.00,2,2,0,2,2249,9239,2109,5131,0,10,3,10,0.00,0.00,0.00,0.00
2013-07-29 21:50:00,2,10778,10,0.00,2,2,0,2,1024,32932,10648,6334,10,10,0,10,0.00,0.00,0.00,0.00
2013-07-29 22:00:00,2,2270,10,0.00,2,2,0,2,686,4648,1112,2058,10,10,0,10,0.00,0.00,0.00,0.00
2013-07-29 22:10:00,2,36275,10,0.00,2,2,0,2,4060,50000,17451,47770,10,10,0,10,0.00,0.00,0.00,0.00
2013-07-29 22:20:00,2,41927,1,0.00,2,2,0,2,16818,50000,11374,48208,0,10,3,0,0.00,0.00,0.00,0.00
2013-07-29 22:30:00,2,17883,0,0.00,2,2,0,2,5879,39935,12039,11912,0,0,0,0,0.00,0.00,0.00,0.00
2013-07-29 22:40:00,2,8090,8,0.00,2,2,0,2,3363,11756,2469,8702,0,10,4,10,0.00,0.00,0.00,0.00
2013-07-29 22:50:00,2,9309,10,0.00,2,2,0,2,4645,17948,4944,7569,10,10,0,10,0.00,0.00,0.00,0.00
2013-07-29 23:00:00,2,9723,10,0.00,2,2,0,2,4422,27423,6537,6836,10,10,0,10,0.00,0.00,0.00,0.00
2013-07-29 23:10:00,2,18588,10,0.00,2,2,0,2,6660,46690,14140,10344,10,10,0,10,0.00,0.00,0.00,0.00
2013-07-29 23:20:00,2,16324,2,0.00,2,2,0,2,7528,26493,6382,15454,0,10,4,0,0.00,0.00,0.00,0.00
2013-07-29 23:30:00,2,9428,0,0.00,2,2,0,2,6535,12575,2163,9981,0,0,0,0,0.00,0.00,0.00,0.00
2013-07-29 23:40:00,2,13629,0,0.00,2,2,0,2,8166,21158,3900,13434,0,0,0,0,0.00,0.00,0.00,0.00
2013-07-29 23:50:00,2,10585,0,0.00,2,2,0,2,5137,18207,4135,9341,0,0,0,0,0.00,0.00,0.00,0.00
